Check out our new PWSWeather beta!
PWSweather.com
Personal Weather Stations
Station Observations
SWHWX01
St AppolinardFR 38160

St AppolinardFR 38160

Lat: 45.191, Lon: 5.268

Elevation: 1460

Station Type: Davis Vantage Pro2 Plus

www.sweetwebhome.com/?show=wxindex

High Low Average
Temperature 46.3°F7.9°C 35.7°F2.1°C 40.5°F4.7°C
Dew Point 40.1°F4.5°C 25.8°F-3.4°C 30.7°F-0.7°C
Winds 15.8 mph 25.4 kmh Calm Calm 5.0 mph NW8.0 kmh NW
Wind Gusts 24.0 mph38.6 kmh -- 8.0 mph12.9 kmh
Humidity 91% 52% 69%
Pressure 30.04 in1017.3 mb 29.79 in1008.8 mb -
Precipitation 0.03 in0.8 mm - -
Hour Temp Dew Point Humidity Winds Wind Gusts Pressure Precip Precip Rate Daily Precip Total
12:00 AM 46.3°F7.9°C 40.1°F4.5°C 79% 2.1 mph W3.4 kmh W 3.0 mph4.8 kmh 29.82 in1009.8 mb - 0.00 in0.0 mm 0.00 in0.0 mm
12:30 AM 46.1°F7.8°C 35.7°F2.1°C 67% 3.4 mph W5.5 kmh W 5.0 mph8.0 kmh 29.82 in1009.8 mb - 0.00 in0.0 mm 0.00 in0.0 mm
01:00 AM 45.8°F7.7°C 35.1°F1.7°C 66% 2.6 mph W4.2 kmh W 4.0 mph6.4 kmh 29.83 in1010.2 mb - 0.00 in0.0 mm 0.00 in0.0 mm
01:30 AM 45.6°F7.6°C 34.1°F1.2°C 64% 2.4 mph W3.9 kmh W 4.0 mph6.4 kmh 29.83 in1010.2 mb - 0.00 in0.0 mm 0.00 in0.0 mm
02:00 AM 45.8°F7.7°C 32.7°F0.4°C 60% 6.1 mph W9.8 kmh W 6.0 mph9.7 kmh 29.83 in1010.2 mb - 0.00 in0.0 mm 0.00 in0.0 mm
02:30 AM 45.0°F7.2°C 31.9°F-0.1°C 60% 3.0 mph WSW4.8 kmh WSW 4.0 mph6.4 kmh 29.82 in1009.8 mb - 0.00 in0.0 mm 0.00 in0.0 mm
03:00 AM 44.1°F6.7°C 32.3°F0.2°C 63% 3.2 mph WSW5.1 kmh WSW 3.0 mph4.8 kmh 29.81 in1009.5 mb - 0.00 in0.0 mm 0.00 in0.0 mm
03:30 AM 43.7°F6.5°C 32.7°F0.4°C 65% 0.4 mph WSW0.6 kmh WSW 2.0 mph3.2 kmh 29.81 in1009.5 mb - 0.00 in0.0 mm 0.00 in0.0 mm
04:00 AM 43.7°F6.5°C 33.5°F0.8°C 67% 6.2 mph NW10.0 kmh NW 12.0 mph19.3 kmh 29.82 in1009.8 mb - 0.00 in0.0 mm 0.00 in0.0 mm
04:30 AM 40.2°F4.6°C 35.5°F1.9°C 83% 4.4 mph N7.1 kmh N 7.0 mph11.3 kmh 29.83 in1010.2 mb - 0.01 in0.3 mm 0.01 in0.3 mm
05:00 AM 39.5°F4.2°C 35.3°F1.8°C 85% Calm Calm -- 29.81 in1009.5 mb - 0.01 in0.3 mm 0.02 in0.5 mm
05:30 AM 38.5°F3.6°C 34.9°F1.6°C 87% 1.6 mph NNW2.6 kmh NNW 2.0 mph3.2 kmh 29.82 in1009.8 mb - 0.00 in0.0 mm 0.02 in0.5 mm
06:00 AM 38.2°F3.4°C 35.2°F1.8°C 89% 0.2 mph NNW0.3 kmh NNW -- 29.81 in1009.5 mb - 0.00 in0.0 mm 0.02 in0.5 mm
06:30 AM 37.7°F3.2°C 34.8°F1.6°C 89% 1.5 mph NNW2.4 kmh NNW 3.0 mph4.8 kmh 29.80 in1009.1 mb - 0.00 in0.0 mm 0.02 in0.5 mm
07:00 AM 37.8°F3.2°C 34.8°F1.6°C 89% 1.9 mph NNW3.1 kmh NNW 6.0 mph9.7 kmh 29.79 in1008.8 mb - 0.00 in0.0 mm 0.02 in0.5 mm
07:30 AM 39.2°F4.0°C 34.7°F1.5°C 84% 3.7 mph N6.0 kmh N 5.0 mph8.0 kmh 29.80 in1009.1 mb - 0.00 in0.0 mm 0.02 in0.5 mm
08:00 AM 36.7°F2.6°C 32.9°F0.5°C 86% 6.3 mph NW10.1 kmh NW 11.0 mph17.7 kmh 29.82 in1009.8 mb - 0.02 in0.5 mm 0.03 in0.8 mm
08:30 AM 37.3°F2.9°C 33.2°F0.7°C 85% 1.4 mph NW2.3 kmh NW 2.0 mph3.2 kmh 29.83 in1010.2 mb - 0.00 in0.0 mm 0.03 in0.8 mm
09:00 AM 36.7°F2.6°C 33.7°F0.9°C 89% 2.4 mph NW3.9 kmh NW 3.0 mph4.8 kmh 29.84 in1010.5 mb - 0.00 in0.0 mm 0.03 in0.8 mm
09:30 AM 36.9°F2.7°C 34.2°F1.2°C 90% 4.0 mph NW6.4 kmh NW 6.0 mph9.7 kmh 29.84 in1010.5 mb - 0.00 in0.0 mm 0.03 in0.8 mm
10:00 AM 37.4°F3.0°C 35.1°F1.7°C 91% 2.2 mph WNW3.5 kmh WNW 3.0 mph4.8 kmh 29.86 in1011.2 mb - 0.00 in0.0 mm 0.03 in0.8 mm
10:30 AM 39.3°F4.1°C 35.4°F1.9°C 86% 3.3 mph WNW5.3 kmh WNW 4.0 mph6.4 kmh 29.85 in1010.8 mb - 0.00 in0.0 mm 0.03 in0.8 mm
11:00 AM 41.0°F5.0°C 32.7°F0.4°C 72% 9.4 mph WNW15.1 kmh WNW 13.0 mph20.9 kmh 29.86 in1011.2 mb - 0.00 in0.0 mm 0.03 in0.8 mm
11:30 AM 41.5°F5.3°C 29.8°F-1.2°C 63% 7.4 mph W11.9 kmh W 14.0 mph22.5 kmh 29.85 in1010.8 mb - 0.00 in0.0 mm 0.03 in0.8 mm
12:00 PM 41.7°F5.4°C 29.2°F-1.6°C 61% 10.7 mph WNW17.2 kmh WNW 17.0 mph27.4 kmh 29.86 in1011.2 mb - 0.00 in0.0 mm 0.03 in0.8 mm
12:30 PM 41.6°F5.3°C 26.6°F-3.0°C 55% 11.0 mph WNW17.7 kmh WNW 17.0 mph27.4 kmh 29.87 in1011.5 mb - 0.00 in0.0 mm 0.03 in0.8 mm
01:00 PM 42.1°F5.6°C 29.2°F-1.6°C 60% 9.2 mph WNW14.8 kmh WNW 13.0 mph20.9 kmh 29.86 in1011.2 mb - 0.00 in0.0 mm 0.03 in0.8 mm
01:30 PM 41.7°F5.4°C 28.4°F-2.0°C 59% 10.8 mph NW17.4 kmh NW 12.0 mph19.3 kmh 29.87 in1011.5 mb - 0.00 in0.0 mm 0.03 in0.8 mm
02:00 PM 41.6°F5.3°C 26.6°F-3.0°C 55% 12.9 mph NW20.8 kmh NW 15.0 mph24.1 kmh 29.87 in1011.5 mb - 0.00 in0.0 mm 0.03 in0.8 mm
02:30 PM 41.6°F5.3°C 27.1°F-2.7°C 56% 7.3 mph NNW11.7 kmh NNW 11.0 mph17.7 kmh 29.87 in1011.5 mb - 0.00 in0.0 mm 0.03 in0.8 mm
03:00 PM 42.2°F5.7°C 25.8°F-3.4°C 52% 9.9 mph N15.9 kmh N 17.0 mph27.4 kmh 29.88 in1011.9 mb - 0.00 in0.0 mm 0.03 in0.8 mm
03:30 PM 42.2°F5.7°C 27.1°F-2.7°C 55% 15.8 mph NNW25.4 kmh NNW 23.0 mph37.0 kmh 29.89 in1012.2 mb - 0.00 in0.0 mm 0.03 in0.8 mm
04:00 PM 42.6°F5.9°C 26.2°F-3.2°C 52% 15.6 mph N25.1 kmh N 22.0 mph35.4 kmh 29.90 in1012.5 mb - 0.00 in0.0 mm 0.03 in0.8 mm
04:30 PM 42.8°F6.0°C 26.3°F-3.2°C 52% 15.1 mph N24.3 kmh N 24.0 mph38.6 kmh 29.90 in1012.5 mb - 0.00 in0.0 mm 0.03 in0.8 mm
05:00 PM 42.7°F5.9°C 27.2°F-2.7°C 54% 12.1 mph NNW19.5 kmh NNW 18.0 mph29.0 kmh 29.91 in1012.9 mb - 0.00 in0.0 mm 0.03 in0.8 mm
05:30 PM 42.2°F5.7°C 27.2°F-2.7°C 55% 6.1 mph NW9.8 kmh NW 12.0 mph19.3 kmh 29.93 in1013.5 mb - 0.00 in0.0 mm 0.03 in0.8 mm
06:00 PM 40.8°F4.9°C 26.7°F-2.9°C 57% 5.2 mph NNW8.4 kmh NNW 7.0 mph11.3 kmh 29.94 in1013.9 mb - 0.00 in0.0 mm 0.03 in0.8 mm
06:30 PM 40.5°F4.7°C 26.9°F-2.8°C 58% 2.7 mph N4.3 kmh N 5.0 mph8.0 kmh 29.96 in1014.6 mb - 0.00 in0.0 mm 0.03 in0.8 mm
07:00 PM 39.8°F4.3°C 27.0°F-2.8°C 60% 4.4 mph NNW7.1 kmh NNW 6.0 mph9.7 kmh 29.98 in1015.2 mb - 0.00 in0.0 mm 0.03 in0.8 mm
07:30 PM 39.2°F4.0°C 27.3°F-2.6°C 62% 3.5 mph NNW5.6 kmh NNW 4.0 mph6.4 kmh 29.98 in1015.2 mb - 0.00 in0.0 mm 0.03 in0.8 mm
08:00 PM 38.1°F3.4°C 27.0°F-2.8°C 64% 1.9 mph NNW3.1 kmh NNW 3.0 mph4.8 kmh 30.00 in1015.9 mb - 0.00 in0.0 mm 0.03 in0.8 mm
08:30 PM 36.7°F2.6°C 26.7°F-2.9°C 67% 2.1 mph NNW3.4 kmh NNW 3.0 mph4.8 kmh 30.00 in1015.9 mb - 0.00 in0.0 mm 0.03 in0.8 mm
09:00 PM 35.7°F2.1°C 26.8°F-2.9°C 70% 2.3 mph NNW3.7 kmh NNW 3.0 mph4.8 kmh 30.02 in1016.6 mb - 0.00 in0.0 mm 0.03 in0.8 mm
09:30 PM 36.8°F2.7°C 26.8°F-2.9°C 67% 2.1 mph NNW3.4 kmh NNW 3.0 mph4.8 kmh 30.02 in1016.6 mb - 0.00 in0.0 mm 0.03 in0.8 mm
10:00 PM 36.4°F2.4°C 27.2°F-2.7°C 69% 0.7 mph NNW1.1 kmh NNW 1.0 mph1.6 kmh 30.03 in1016.9 mb - 0.00 in0.0 mm 0.03 in0.8 mm
10:30 PM 36.4°F2.4°C 27.5°F-2.5°C 70% 1.9 mph NNW3.1 kmh NNW 3.0 mph4.8 kmh 30.03 in1016.9 mb - 0.00 in0.0 mm 0.03 in0.8 mm
11:00 PM 37.4°F3.0°C 27.4°F-2.6°C 67% 1.5 mph NNW2.4 kmh NNW 3.0 mph4.8 kmh 30.04 in1017.3 mb - 0.00 in0.0 mm 0.03 in0.8 mm
11:30 PM 36.2°F2.3°C 27.4°F-2.6°C 70% 0.9 mph NNW1.4 kmh NNW 2.0 mph3.2 kmh 30.04 in1017.3 mb - 0.00 in0.0 mm 0.03 in0.8 mm